Location: Rounton
(54.4000°N, 1.3500°W)
Time: 14:15:16
(UTC+01:00)

S-56A Canister/Altair - Pass Details

Date: 09 September 2024
Orbit: 636 x 2487 km, 38.9° (Epoch: 02 October)

Event Time Altitude Azimuth Distance (km) Brightness Sun altitude
Rises 23:48:22 0° 249° (WSW) 4,246 11.3 -28.8°
Reaches altitude 10° 23:51:12 10° 240° (WSW) 3,517 10.8 -28.9°
Enters shadow 23:54:32 23° 222° (SW) 2,883 10.1 -29.1°
Maximum altitude 23:59:18 34° 179° (S) 2,682 - -29.3°
Drops below altitude 10° 00:10:17 10° 122° (ESE) 4,801 - -29.8°
Sets 00:14:55 0° 115° (ESE) 5,988 - -29.9°
